Canby, MN

3:34 PM CST on February 14, 2016 (GMT -0600)
Canby

Weather History for KCNB - March, 2013

Change the Weather History Date:

Monday, March 4, 2013

  Actual Average (KMML) Record (KMML)
Temperature  
Mean Temperature 27 °F -  
Max Temperature 30 °F 35 °F 61 °F (1987)
Min Temperature 24 °F 16 °F -13 °F (1952)
Degree Days  
Heating Degree Days 38    
Moisture  
Dew Point 26 °F    
Average Humidity 95    
Maximum Humidity 99    
Minimum Humidity 76    
Precipitation  
Precipitation 0.00 in - - ()
Sea Level Pressure  
Sea Level Pressure 29.84 in    
Wind  
Wind Speed 12 mph (SE)    
Max Wind Speed 16 mph    
Max Gust Speed 21 mph    
Visibility 5 miles    
Events Snow    
Averages and records for this station are not official NWS values.
T = Trace of Precipitation, MM = Missing Value Source: NWS Daily Summary

Daily Weather History Graph

Daily Weather History Graph

Search for Another Location

Airport or City:

Trip Planner

Search our weather history database for the weather conditions in past years. The results will help you decide how hot, cold, wet, or windy it might be!

Date:

Astronomy

Mar. 04, 2013 Rise Set
Actual Time 6:56 AM CST 6:17 PM CST
Civil Twilight 6:27 AM CST 6:46 PM CST
Nautical Twilight 5:53 AM CST 7:20 PM CST
Astronomical Twilight 5:19 AM CST 7:54 PM CST
Moon 1:17 AM CST (3/4) 10:49 AM CST (3/4)
Length of Visible Light 12h 18m
Length of Day
11h 20m
Waning Gibbous, 52% of the Moon is Illuminated
Mar 4
Waning Gibbous
Mar 4
Last Quarter
Mar 11
New
Mar 19
First Quarter
Mar 27
Full

Hourly Weather History & Observations

Time (CST) Temp. Windchill Dew Point Humidity Pressure Visibility Wind Dir Wind Speed Gust Speed Precip Events Conditions
12:15 AM 26.1 °F 13.6 °F 24.8 °F 95% 29.80 in 4.0 mi ESE 16.1 mph - N/A Snow Light Snow
12:36 AM 25.7 °F 13.1 °F 24.3 °F 94% 29.79 in 4.0 mi ESE 16.1 mph 20.7 mph N/A Snow Light Snow
12:56 AM 25.7 °F 13.5 °F 24.3 °F 94% 29.79 in 5.0 mi ESE 15.0 mph - N/A Snow Light Snow
1:36 AM 25.7 °F 14.0 °F 24.4 °F 95% 29.79 in 5.0 mi ESE 13.8 mph - N/A   Overcast
1:56 AM 25.7 °F 13.5 °F 24.4 °F 95% 29.79 in 4.0 mi ESE 15.0 mph - N/A Snow Light Snow
2:16 AM 25.7 °F 14.0 °F 24.4 °F 95% 29.78 in 3.0 mi ESE 13.8 mph - N/A Snow Light Snow
2:36 AM 25.5 °F 14.3 °F 24.3 °F 95% 29.77 in 2.0 mi ESE 12.7 mph 18.4 mph N/A Snow Light Snow
2:56 AM 25.3 °F 14.1 °F 24.3 °F 96% 29.77 in 5.0 mi ESE 12.7 mph - N/A Snow Light Snow
3:16 AM 25.2 °F 13.3 °F 23.9 °F 95% 29.77 in 7.0 mi ESE 13.8 mph 18.4 mph N/A   Overcast
3:36 AM 25.0 °F 13.1 °F 23.9 °F 96% 29.77 in 10.0 mi ESE 13.8 mph 18.4 mph N/A   Overcast
3:56 AM 24.8 °F 13.4 °F 23.7 °F 96% 29.77 in 10.0 mi ESE 12.7 mph - N/A   Overcast
4:16 AM 24.8 °F 12.4 °F 23.5 °F 95% 29.77 in 10.0 mi ESE 15.0 mph - N/A   Overcast
4:36 AM 24.8 °F 13.4 °F 23.5 °F 95% 29.79 in 10.0 mi ESE 12.7 mph - N/A   Overcast
4:56 AM 24.8 °F 14.0 °F 23.7 °F 96% 29.79 in 10.0 mi ESE 11.5 mph - N/A   Overcast
5:16 AM 24.8 °F 13.4 °F 23.5 °F 95% 29.79 in 7.0 mi ESE 12.7 mph 18.4 mph N/A   Overcast
5:36 AM 24.8 °F 12.4 °F 23.5 °F 95% 29.79 in 7.0 mi ESE 15.0 mph - N/A   Overcast
5:56 AM 24.8 °F 13.4 °F 23.5 °F 95% 29.80 in 10.0 mi ESE 12.7 mph - N/A   Overcast
6:16 AM 24.8 °F 14.0 °F 23.5 °F 95% 29.80 in 10.0 mi ESE 11.5 mph - N/A   Overcast
6:36 AM 24.8 °F 13.4 °F 23.5 °F 95% 29.80 in 10.0 mi ESE 12.7 mph - N/A   Overcast
6:56 AM 24.8 °F 13.4 °F 23.7 °F 96% 29.80 in 10.0 mi ESE 12.7 mph - N/A   Overcast
7:16 AM 25.0 °F 14.2 °F 23.9 °F 96% 29.80 in 10.0 mi ESE 11.5 mph - N/A   Overcast
7:36 AM 25.3 °F 14.7 °F 23.9 °F 94% 29.81 in 10.0 mi ESE 11.5 mph - N/A   Overcast
7:56 AM 25.5 °F 14.9 °F 24.3 °F 95% 29.81 in 7.0 mi ESE 11.5 mph - N/A   Overcast
8:16 AM 25.7 °F 15.7 °F 24.4 °F 95% 29.81 in 4.0 mi ESE 10.4 mph - N/A   Overcast
8:36 AM 25.7 °F 15.1 °F 24.8 °F 96% 29.81 in 2.5 mi ESE 11.5 mph - N/A   Overcast
8:55 AM 26.1 °F 16.2 °F 25.2 °F 96% 29.82 in 1.8 mi ESE 10.4 mph - N/A   Overcast
9:16 AM 25.7 °F 14.6 °F 25.0 °F 97% 29.81 in 1.5 mi ESE 12.7 mph - N/A   Overcast
9:36 AM 25.9 °F 14.8 °F 25.2 °F 97% 29.81 in 1.5 mi ESE 12.7 mph - N/A   Overcast
9:56 AM 25.7 °F 15.1 °F 25.2 °F 98% 29.81 in 1.5 mi ESE 11.5 mph - N/A   Overcast
10:16 AM 25.9 °F 15.3 °F 25.3 °F 98% 29.82 in 1.8 mi ESE 11.5 mph - N/A   Overcast
10:36 AM 26.2 °F 16.4 °F 25.5 °F 97% 29.82 in 1.8 mi ESE 10.4 mph - N/A   Overcast
10:56 AM 26.4 °F 16.6 °F 25.7 °F 97% 29.83 in 1.5 mi ESE 10.4 mph - N/A   Overcast
11:16 AM 26.6 °F 16.2 °F 26.1 °F 98% 29.83 in 1.5 mi ESE 11.5 mph - N/A   Overcast
11:36 AM 27.1 °F 18.9 °F 26.6 °F 98% 29.84 in 1.2 mi ESE 8.1 mph - N/A   Overcast
11:56 AM 27.5 °F 18.0 °F 27.1 °F 99% 29.84 in 1.2 mi ESE 10.4 mph - N/A Snow Light Snow
12:15 PM 27.5 °F 19.3 °F 27.1 °F 99% 29.84 in 1.2 mi ESE 8.1 mph - N/A   Overcast
12:56 PM 28.4 °F 19.1 °F 27.5 °F 96% 29.83 in 1.5 mi ESE 10.4 mph - N/A Snow Light Snow
1:16 PM 28.6 °F 19.9 °F 27.5 °F 96% 29.83 in 2.0 mi ESE 9.2 mph - N/A   Overcast
1:36 PM 28.9 °F 19.8 °F 27.9 °F 96% 29.82 in 1.8 mi ESE 10.4 mph - N/A Snow Light Snow
1:56 PM 28.8 °F 20.2 °F 27.9 °F 96% 29.83 in 1.5 mi ESE 9.2 mph - N/A Snow Light Snow
2:16 PM 29.1 °F 20.0 °F 28.4 °F 97% 29.83 in 1.2 mi SE 10.4 mph - N/A Snow Light Snow
2:35 PM 29.3 °F 20.8 °F 28.4 °F 96% 29.83 in 1.0 mi SE 9.2 mph - N/A Snow Light Snow
2:56 PM 29.3 °F 21.5 °F 28.2 °F 96% 29.83 in 0.5 mi ESE 8.1 mph - N/A Snow Snow
3:36 PM 29.3 °F 22.3 °F 28.2 °F 96% 29.85 in 1.5 mi SE 6.9 mph - N/A Snow Light Snow
3:56 PM 29.3 °F 23.2 °F 28.4 °F 96% 29.84 in 1.5 mi ESE 5.8 mph - N/A Snow Light Snow
4:16 PM 29.3 °F 22.3 °F 28.4 °F 96% 29.84 in 2.0 mi SE 6.9 mph - N/A   Overcast
4:35 PM 29.3 °F 22.3 °F 28.4 °F 96% 29.85 in 2.5 mi SE 6.9 mph - N/A   Overcast
4:56 PM 29.3 °F 21.5 °F 28.4 °F 96% 29.85 in 2.5 mi ESE 8.1 mph - N/A   Overcast
5:16 PM 29.3 °F 20.8 °F 28.4 °F 96% 29.86 in 2.5 mi SE 9.2 mph - N/A   Overcast
5:36 PM 29.3 °F 21.5 °F 28.4 °F 96% 29.87 in 2.0 mi SE 8.1 mph - N/A   Overcast
5:56 PM 29.3 °F 20.8 °F 28.4 °F 96% 29.88 in 2.5 mi SE 9.2 mph - N/A   Overcast
6:16 PM 29.3 °F 21.5 °F 28.4 °F 96% 29.89 in 2.5 mi SE 8.1 mph - N/A   Overcast
6:36 PM 28.9 °F 21.1 °F 28.2 °F 97% 29.89 in 3.0 mi ESE 8.1 mph - N/A   Mostly Cloudy
6:56 PM 28.4 °F 20.4 °F 27.9 °F 98% 29.90 in 4.0 mi SE 8.1 mph - N/A   Scattered Clouds
7:16 PM 28.2 °F 21.0 °F 27.5 °F 97% 29.90 in 4.0 mi SE 6.9 mph - N/A   Overcast
7:36 PM 28.6 °F 22.4 °F 28.0 °F 98% 29.91 in 4.0 mi SSE 5.8 mph - N/A   Overcast
7:56 PM 28.4 °F 22.2 °F 27.9 °F 98% 29.91 in 4.0 mi SE 5.8 mph - N/A   Overcast
8:36 PM 28.0 °F 22.8 °F 27.5 °F 98% 29.91 in 4.0 mi SE 4.6 mph - N/A   Mostly Cloudy
8:56 PM 27.9 °F 21.5 °F 27.3 °F 98% 29.91 in 4.0 mi SSE 5.8 mph - N/A   Mostly Cloudy
9:16 PM 28.4 °F 24.6 °F 27.7 °F 97% 29.91 in 4.0 mi SSE 3.5 mph - N/A   Overcast
9:36 PM 28.9 °F 25.2 °F 27.9 °F 96% 29.91 in 5.0 mi South 3.5 mph - N/A   Mostly Cloudy
9:56 PM 29.5 °F 25.9 °F 27.7 °F 93% 29.91 in 7.0 mi South 3.5 mph - N/A   Mostly Cloudy
10:15 PM 30.2 °F 26.7 °F 26.2 °F 85% 29.91 in 10.0 mi SW 3.5 mph - N/A   Overcast
10:36 PM 29.1 °F 24.1 °F 26.1 °F 88% 29.91 in 10.0 mi WSW 4.6 mph - N/A   Overcast
10:56 PM 29.8 °F 22.2 °F 23.0 °F 76% 29.90 in 10.0 mi WSW 8.1 mph - N/A   Overcast
11:15 PM 29.1 °F 20.0 °F 23.0 °F 78% 29.89 in 10.0 mi WSW 10.4 mph - N/A   Overcast
11:36 PM 28.4 °F 19.1 °F 23.0 °F 80% 29.90 in 10.0 mi WSW 10.4 mph - N/A   Overcast
11:56 PM 28.0 °F 18.1 °F 23.2 °F 82% 29.90 in 10.0 mi WSW 11.5 mph - N/A   Overcast